QPF
0.00 0.00 0.00 0.00 0.00 0.00 0.01 0.02 0.00 0.00 0.00 0.00 0.00 0.00 0.00 0.00 0.00 0.00 0.00 0.00 0.00 0.00 0.00 0.00 0.00 0.00 0.00 0.00 0.00 0.00 0.00 0.00 0.00 0.00 0.00 0.00 0.00 0.00 0.00 0.00 0.00 0.00 0.01
0.00 0.00 0.00 0.00 0.00 0.01 0.03 0.02 0.00 0.00 0.01 0.00 0.00 0.00 0.00 0.00 0.00 0.00 0.00 0.00 0.00 0.00 0.00 0.00 0.00 0.00 0.00 0.00 0.00 0.00 0.00 0.00 0.00 0.00 0.00 0.00 0.00 0.00 0.00 0.01 0.03 0.01 0.00
0.00 0.00 0.00 0.00 0.00 0.00 0.00 0.00 0.00 0.00 0.00 0.00 0.00 0.00 0.00 0.00 0.00 0.00 0.00 0.00 0.00 0.00 0.00 0.01 0.00 0.00 0.00 0.00 0.00 0.00 0.00 0.00 0.00 0.00 0.00 0.00 0.00 0.01 0.01 0.05 0.07 0.01 0.00
0.00 0.00 0.00 0.00 0.00 0.00 0.00 0.00 0.00 0.00 0.00 0.00 0.00 0.00 0.00 0.00 0.00 0.00 0.00 0.00 0.00 0.01 0.02 0.01 0.00 0.00 0.00 0.00 0.00 0.00 0.00 0.00 0.00 0.00 0.00 0.00 0.00 0.00 0.02 0.08 0.07 0.02 0.00
0.00 0.00 0.00 0.00 0.00 0.00 0.00 0.00 0.00 0.00 0.00 0.00 0.00 0.00 0.00 0.00 0.00 0.00 0.00 0.00 0.01 0.03 0.02 0.00 0.00 0.00 0.00 0.00 0.00 0.00 0.00 0.00 0.00 0.00 0.00 0.00 0.00 0.00 0.01 0.03 0.02 0.00 0.00
0.00 0.00 0.00 0.01 0.00 0.00 0.00 0.00 0.00 0.00 0.00 0.00 0.00 0.00 0.00 0.00 0.00 0.00 0.01 0.00 0.00 0.01 0.01 0.01 0.02 0.00 0.00 0.00 0.00 0.01 0.00 0.00 0.00 0.00 0.00 0.00 0.00 0.00 0.00 0.00 0.00 0.00 0.00
0.00 0.00 0.00 0.00 0.00 0.00 0.00 0.00 0.00 0.00 0.00 0.00 0.00 0.00 0.00 0.00 0.00 0.01 0.01 0.02 0.00 0.00 0.01 0.01 0.03 0.00 0.00 0.00 0.00 0.00 0.00 0.00 0.00 0.00 0.00 0.00 0.00 0.00 0.02 0.00 0.01 0.03 0.05
0.00 0.00 0.00 0.00 0.00 0.00 0.00 0.00 0.00 0.00 0.00 0.00 0.00 0.00 0.00 0.00 0.00 0.00 0.01 0.02 0.01 0.00 0.01 0.01 0.00 0.00 0.00 0.00 0.00 0.00 0.00 0.00 0.00 0.00 0.00 0.01 0.05 0.06 0.10 0.06 0.07 0.06 0.07
0.00 0.00 0.00 0.00 0.00 0.00 0.00 0.00 0.00 0.00 0.00 0.00 0.00 0.00 0.00 0.00 0.00 0.00 0.00 0.01 0.02 0.01 0.02 0.04 0.06 0.01 0.00 0.00 0.00 0.00 0.00 0.00 0.00 0.00 0.00 0.00 0.09 0.14 0.10 0.06 0.05 0.09 0.06
0.00 0.00 0.00 0.00 0.00 0.00 0.00 0.00 0.00 0.00 0.00 0.00 0.00 0.00 0.00 0.00 0.00 0.00 0.00 0.00 0.01 0.01 0.01 0.01 0.04 0.02 0.00 0.00 0.00 0.00 0.00 0.00 0.00 0.00 0.00 0.00 0.04 0.13 0.08 0.01 0.00 0.02 0.04
0.00 0.00 0.00 0.00 0.00 0.00 0.00 0.00 0.00 0.00 0.00 0.00 0.00 0.00 0.00 0.00 0.00 0.00 0.00 0.00 0.01 0.01 0.01 0.01 0.02 0.01 0.00 0.00 0.00 0.00 0.00 0.00 0.00 0.00 0.00 0.00 0.03 0.05 0.02 0.01 0.00 0.00 0.01
0.00 0.00 0.00 0.00 0.00 0.00 0.00 0.00 0.00 0.00 0.00 0.00 0.00 0.00 0.00 0.00 0.00 0.00 0.00 0.00 0.00 0.03 0.04 0.06 0.03 0.02 0.00 0.00 0.00 0.00 0.00 0.00 0.00 0.00 0.00 0.00 0.01 0.01 0.00 0.00 0.00 0.00 0.00
0.00 0.00 0.00 0.00 0.00 0.00 0.00 0.00 0.00 0.00 0.00 0.00 0.00 0.00 0.00 0.00 0.00 0.00 0.00 0.00 0.00 0.00 0.00 0.02 0.04 0.01 0.00 0.00 0.00 0.00 0.00 0.00 0.00 0.00 0.00 0.00 0.02 0.09 0.03 0.00 0.00 0.00 0.00
0.00 0.00 0.00 0.00 0.00 0.00 0.00 0.00 0.00 0.00 0.00 0.00 0.00 0.00 0.00 0.00 0.00 0.00 0.00 0.00 0.00 0.00 0.03 0.01 0.00 0.01 0.01 0.00 0.00 0.00 0.00 0.00 0.00 0.00 0.00 0.00 0.00 0.03 0.06 0.02 0.00 0.00 0.00
0.00 0.00 0.00 0.00 0.00 0.00 0.00 0.00 0.00 0.00 0.00 0.00 0.00 0.00 0.00 0.00 0.00 0.00 0.00 0.00 0.00 0.00 0.01 0.02 0.04 0.01 0.00 0.00 0.00 0.00 0.00 0.00 0.00 0.00 0.00 0.00 0.00 0.00 0.01 0.01 0.00 0.00 0.00
0.00 0.00 0.00 0.00 0.00 0.00 0.00 0.00 0.00 0.00 0.00 0.00 0.00 0.00 0.00 0.00 0.00 0.00 0.00 0.00 0.00 0.00 0.01 0.02 0.04 0.05 0.05 0.03 0.00 0.00 0.00 0.00 0.00 0.00 0.00 0.00 0.00 0.00 0.00 0.00 0.00 0.00 0.00
0.00 0.00 0.00 0.00 0.00 0.00 0.00 0.00 0.00 0.00 0.00 0.00 0.00 0.00 0.00 0.00 0.00 0.00 0.00 0.00 0.00 0.00 0.00 0.00 0.02 0.04 0.04 0.05 0.01 0.00 0.00 0.00 0.00 0.01 0.01 0.00 0.00 0.00 0.00 0.01 0.00 0.00 0.00
0.00 0.00 0.00 0.00 0.00 0.00 0.00 0.00 0.00 0.00 0.00 0.00 0.00 0.00 0.00 0.00 0.00 0.00 0.00 0.00 0.00 0.00 0.00 0.00 0.00 0.00 0.02 0.03 0.04 0.03 0.02 0.00 0.00 0.00 0.00 0.00 0.00 0.00 0.00 0.00 0.03 0.02 0.00
0.00 0.00 0.00 0.00 0.00 0.00 0.00 0.00 0.00 0.00 0.00 0.00 0.00 0.00 0.00 0.00 0.00 0.00 0.00 0.00 0.00 0.00 0.00 0.00 0.00 0.00 0.00 0.02 0.03 0.07 0.06 0.04 0.03 0.01 0.00 0.00 0.00 0.00 0.00 0.00 0.03 0.03 0.01
0.00 0.00 0.00 0.00 0.00 0.00 0.00 0.00 0.00 0.00 0.00 0.00 0.00 0.00 0.00 0.00 0.00 0.00 0.00 0.00 0.00 0.00 0.00 0.00 0.00 0.00 0.00 0.00 0.00 0.00 0.03 0.04 0.04 0.03 0.01 0.00 0.00 0.00 0.00 0.00 0.00 0.01 0.01
0.00 0.00 0.00 0.00 0.00 0.00 0.00 0.00 0.00 0.00 0.00 0.00 0.00 0.00 0.00 0.00 0.00 0.00 0.00 0.00 0.00 0.00 0.00 0.00 0.00 0.00 0.00 0.00 0.00 0.00 0.00 0.01 0.02 0.03 0.01 0.00 0.00 0.00 0.00 0.00 0.00 0.00 0.00
0.00 0.00 0.00 0.00 0.00 0.00 0.00 0.00 0.00 0.00 0.00 0.00 0.00 0.00 0.00 0.00 0.00 0.00 0.00 0.00 0.00 0.00 0.00 0.00 0.00 0.00 0.00 0.00 0.00 0.00 0.00 0.00 0.00 0.01 0.01 0.00 0.00 0.00 0.00 0.00 0.00 0.00 0.00
0.00 0.00 0.00 0.00 0.00 0.00 0.00 0.00 0.00 0.00 0.00 0.00 0.00 0.00 0.00 0.00 0.00 0.00 0.00 0.00 0.00 0.00 0.00 0.00 0.00 0.00 0.00 0.00 0.00 0.00 0.00 0.00 0.00 0.00 0.00 0.01 0.01 0.00 0.00 0.00 0.00 0.00 0.00
0.00 0.00 0.00 0.00 0.00 0.00 0.00 0.00 0.00 0.00 0.00 0.00 0.00 0.00 0.00 0.00 0.00 0.00 0.00 0.00 0.00 0.00 0.00 0.00 0.00 0.00 0.00 0.00 0.00 0.00 0.00 0.00 0.00 0.00 0.00 0.00 0.00 0.01 0.01 0.01 0.00 0.00 0.00
0.00 0.00 0.00 0.00 0.00 0.00 0.00 0.00 0.00 0.00 0.00 0.00 0.00 0.00 0.00 0.00 0.00 0.00 0.00 0.00 0.00 0.00 0.00 0.00 0.00 0.00 0.00 0.00 0.00 0.00 0.00 0.00 0.00 0.00 0.00 0.00 0.00 0.00 0.00 0.00 0.00 0.00 0.00
0.00 0.00 0.00 0.00 0.00 0.00 0.00 0.00 0.00 0.00 0.00 0.00 0.00 0.00 0.00 0.00 0.00 0.00 0.00 0.00 0.00 0.00 0.00 0.00 0.00 0.00 0.00 0.00 0.00 0.00 0.00 0.00 0.00 0.00 0.00 0.00 0.00 0.00 0.00 0.00 0.00 0.00 0.00
MSLP
1014.86 1014.62 1014.57 1014.62 1014.68 1014.82 1014.96 1015.15 1015.35 1015.46 1015.57 1015.62 1015.71 1015.78 1015.88 1016.00 1016.10 1016.18 1016.38 1016.44 1016.44 1016.53 1016.64 1016.75 1016.89 1017.00 1017.11 1017.18 1017.21 1017.26 1017.37 1017.52 1017.61 1017.64 1017.68 1017.72 1017.71 1017.81 1017.91 1018.01 1018.11 1018.19 1018.28
1014.54 1014.74 1014.75 1014.79 1014.86 1015.02 1015.24 1015.28 1015.48 1015.63 1015.78 1015.88 1015.95 1016.05 1016.14 1016.24 1016.33 1016.49 1016.59 1016.72 1016.74 1016.85 1016.91 1016.99 1017.07 1017.23 1017.34 1017.50 1017.60 1017.69 1017.77 1017.90 1018.00 1018.12 1018.19 1018.13 1018.11 1018.09 1018.17 1018.30 1018.26 1018.42 1018.55
1014.82 1014.87 1014.95 1015.01 1015.11 1015.27 1015.41 1015.51 1015.64 1015.76 1015.87 1015.99 1016.12 1016.30 1016.41 1016.46 1016.56 1016.61 1016.78 1016.89 1016.97 1017.03 1017.11 1017.21 1017.35 1017.50 1017.65 1017.82 1017.92 1018.01 1018.09 1018.16 1018.33 1018.49 1018.54 1018.57 1018.46 1018.38 1018.44 1018.53 1018.56 1018.76 1018.91
1014.80 1015.00 1015.15 1015.18 1015.34 1015.49 1015.64 1015.75 1015.83 1015.94 1016.02 1016.12 1016.24 1016.36 1016.60 1016.70 1016.72 1016.82 1016.90 1017.04 1017.14 1017.21 1017.40 1017.48 1017.70 1017.81 1017.91 1018.07 1018.17 1018.30 1018.42 1018.53 1018.64 1018.80 1018.82 1018.77 1018.67 1018.65 1018.71 1018.78 1018.76 1018.96 1019.19
1014.99 1015.12 1015.24 1015.32 1015.50 1015.67 1015.82 1015.91 1015.96 1016.03 1016.11 1016.24 1016.31 1016.50 1016.66 1016.80 1016.94 1016.99 1017.04 1017.14 1017.29 1017.48 1017.62 1017.76 1017.96 1018.13 1018.18 1018.23 1018.33 1018.47 1018.64 1018.82 1018.87 1018.96 1019.09 1019.03 1018.97 1018.88 1018.97 1018.99 1019.11 1019.30 1019.51
1015.27 1015.33 1015.40 1015.47 1015.60 1015.75 1015.89 1016.03 1016.08 1016.10 1016.18 1016.27 1016.43 1016.54 1016.70 1016.84 1017.01 1017.13 1017.24 1017.41 1017.49 1017.67 1017.78 1017.96 1018.11 1018.31 1018.48 1018.54 1018.54 1018.62 1018.80 1018.94 1019.05 1019.09 1019.18 1019.19 1019.15 1019.03 1019.14 1019.35 1019.50 1019.62 1019.73
1015.47 1015.51 1015.59 1015.63 1015.73 1015.89 1016.02 1016.11 1016.21 1016.27 1016.32 1016.38 1016.52 1016.63 1016.76 1016.88 1017.07 1017.20 1017.38 1017.53 1017.63 1017.74 1017.92 1018.06 1018.29 1018.44 1018.60 1018.76 1018.76 1018.82 1018.94 1019.08 1019.15 1019.10 1019.18 1019.31 1019.31 1019.14 1019.20 1019.53 1019.71 1019.80 1019.90
1015.42 1015.60 1015.71 1015.71 1015.81 1015.94 1016.10 1016.24 1016.36 1016.45 1016.53 1016.57 1016.62 1016.73 1016.82 1016.92 1017.01 1017.17 1017.34 1017.50 1017.67 1017.81 1017.93 1018.16 1018.34 1018.58 1018.75 1018.85 1018.94 1019.05 1019.13 1019.16 1019.14 1019.20 1019.23 1019.27 1019.25 1019.03 1019.18 1019.44 1019.75 1019.96 1020.09
1015.78 1015.87 1015.94 1015.96 1016.04 1016.13 1016.25 1016.36 1016.47 1016.56 1016.64 1016.70 1016.75 1016.83 1016.95 1017.01 1017.06 1017.15 1017.27 1017.42 1017.61 1017.77 1017.95 1018.17 1018.28 1018.52 1018.68 1018.85 1019.05 1019.18 1019.29 1019.33 1019.35 1019.33 1019.36 1019.29 1019.00 1018.85 1019.23 1019.40 1019.70 1020.06 1020.24
1016.28 1016.28 1016.38 1016.36 1016.29 1016.41 1016.48 1016.53 1016.60 1016.69 1016.74 1016.81 1016.84 1016.91 1017.04 1017.11 1017.18 1017.19 1017.27 1017.41 1017.55 1017.74 1017.89 1018.14 1018.35 1018.60 1018.76 1018.84 1019.07 1019.26 1019.32 1019.44 1019.57 1019.49 1019.50 1019.40 1019.23 1019.15 1019.27 1019.52 1019.77 1019.99 1020.26
1016.70 1016.69 1016.66 1016.60 1016.53 1016.57 1016.70 1016.72 1016.77 1016.82 1016.87 1016.95 1016.99 1017.03 1017.10 1017.20 1017.29 1017.34 1017.32 1017.38 1017.46 1017.59 1017.78 1018.00 1018.24 1018.53 1018.77 1018.97 1019.09 1019.32 1019.44 1019.57 1019.62 1019.62 1019.58 1019.49 1019.49 1019.50 1019.64 1019.82 1019.96 1020.17 1020.39
1016.92 1016.82 1016.83 1016.76 1016.70 1016.77 1016.65 1016.77 1016.90 1016.98 1017.08 1017.14 1017.17 1017.20 1017.20 1017.21 1017.24 1017.27 1017.32 1017.37 1017.45 1017.47 1017.65 1017.86 1018.11 1018.40 1018.75 1019.05 1019.17 1019.35 1019.57 1019.65 1019.69 1019.69 1019.65 1019.55 1019.52 1019.58 1019.79 1020.17 1020.28 1020.39 1020.56
1016.79 1016.82 1016.72 1016.73 1016.67 1016.76 1016.80 1016.89 1017.07 1017.13 1017.16 1017.13 1017.16 1017.23 1017.25 1017.23 1017.28 1017.28 1017.30 1017.34 1017.47 1017.56 1017.71 1017.81 1018.02 1018.35 1018.66 1018.97 1019.14 1019.33 1019.55 1019.64 1019.74 1019.76 1019.61 1019.60 1019.51 1019.50 1019.78 1020.04 1020.37 1020.60 1020.79
1016.83 1016.68 1016.54 1016.52 1016.68 1016.70 1016.82 1016.94 1016.94 1017.07 1017.12 1017.19 1017.14 1017.11 1017.23 1017.27 1017.30 1017.32 1017.35 1017.29 1017.36 1017.40 1017.56 1017.77 1018.01 1018.11 1018.43 1018.76 1018.95 1019.11 1019.34 1019.55 1019.63 1019.65 1019.66 1019.60 1019.62 1019.51 1019.69 1019.92 1020.20 1020.49 1020.72
1017.02 1016.56 1016.28 1016.34 1016.43 1016.37 1016.63 1016.84 1016.95 1016.98 1016.93 1016.89 1016.94 1016.98 1017.10 1017.20 1017.17 1017.14 1017.16 1017.22 1017.32 1017.36 1017.42 1017.67 1017.87 1018.05 1018.26 1018.51 1018.75 1018.94 1019.09 1019.27 1019.39 1019.52 1019.48 1019.48 1019.54 1019.57 1019.54 1019.72 1019.97 1020.26 1020.44
1018.18 1016.77 1016.17 1016.12 1016.01 1016.27 1016.52 1016.52 1016.68 1016.76 1016.75 1016.77 1016.84 1016.87 1016.91 1017.06 1017.11 1017.07 1017.04 1017.01 1017.12 1017.21 1017.35 1017.47 1017.67 1018.00 1018.05 1018.15 1018.43 1018.63 1018.79 1018.93 1019.13 1019.22 1019.33 1019.32 1019.35 1019.43 1019.49 1019.46 1019.60 1019.86 1020.14
1019.15 1017.98 1017.33 1016.02 1015.76 1016.07 1016.28 1016.35 1016.52 1016.63 1016.66 1016.75 1016.71 1016.66 1016.70 1016.90 1017.03 1016.99 1017.05 1017.14 1017.07 1017.16 1017.21 1017.39 1017.68 1017.88 1018.12 1018.16 1018.28 1018.30 1018.47 1018.66 1018.74 1018.86 1018.98 1018.95 1019.05 1019.15 1019.19 1019.27 1019.33 1019.57 1019.78
1020.71 1019.51 1018.32 1017.56 1017.45 1016.48 1016.08 1016.05 1016.19 1016.36 1016.60 1016.71 1016.80 1016.79 1016.61 1016.56 1016.76 1016.98 1017.09 1017.16 1017.03 1017.14 1017.27 1017.44 1017.66 1017.79 1017.99 1018.07 1018.10 1018.09 1018.22 1018.25 1018.38 1018.46 1018.56 1018.67 1018.72 1018.81 1018.82 1018.90 1018.97 1019.17 1019.47
1022.14 1020.98 1019.94 1018.84 1018.06 1017.62 1017.51 1016.53 1016.21 1016.18 1016.36 1016.46 1016.56 1016.63 1016.63 1016.54 1016.54 1016.77 1016.87 1016.84 1016.94 1017.05 1017.20 1017.46 1017.67 1017.75 1017.77 1017.84 1017.93 1017.98 1018.17 1018.28 1018.20 1018.19 1018.23 1018.35 1018.37 1018.35 1018.47 1018.55 1018.79 1018.88 1019.17
1023.11 1022.20 1021.33 1020.62 1019.72 1018.44 1017.91 1017.88 1017.50 1016.74 1016.58 1016.55 1016.54 1016.52 1016.44 1016.39 1016.25 1016.47 1016.69 1016.79 1016.82 1017.12 1017.30 1017.42 1017.53 1017.62 1017.66 1017.69 1017.65 1017.72 1017.82 1017.89 1017.93 1018.17 1018.00 1017.95 1017.97 1018.05 1018.04 1018.23 1018.64 1018.89 1019.03
1023.57 1022.68 1022.30 1021.71 1021.36 1020.54 1019.76 1018.94 1018.39 1018.15 1017.02 1016.72 1016.50 1016.40 1016.41 1016.36 1016.20 1016.21 1016.35 1016.55 1016.73 1016.94 1017.04 1017.26 1017.46 1017.56 1017.57 1017.45 1017.73 1017.69 1017.51 1017.44 1017.47 1017.58 1017.54 1017.66 1017.77 1017.62 1017.80 1017.89 1018.21 1018.42 1018.92
1024.89 1024.24 1023.43 1023.02 1022.52 1022.04 1021.56 1020.72 1019.65 1018.74 1017.84 1017.15 1016.72 1016.51 1016.36 1016.25 1016.15 1016.12 1016.17 1016.37 1016.55 1016.79 1016.96 1017.13 1017.30 1017.57 1017.54 1017.33 1017.49 1017.64 1017.74 1017.47 1017.23 1017.03 1017.05 1017.35 1017.40 1017.36 1017.50 1017.73 1017.84 1018.15 1018.20
1025.74 1025.30 1024.75 1024.27 1023.70 1023.12 1022.45 1021.47 1020.56 1019.02 1018.19 1017.74 1017.02 1016.69 1016.37 1016.15 1015.97 1015.99 1015.95 1015.99 1016.25 1016.49 1016.70 1016.87 1017.07 1017.32 1017.46 1017.35 1017.24 1017.43 1017.82 1017.65 1017.30 1017.10 1016.94 1017.05 1017.06 1017.21 1017.22 1017.34 1017.56 1017.69 1017.91
1026.82 1026.35 1025.60 1024.95 1024.36 1023.84 1023.17 1022.52 1022.38 1021.98 1020.99 1019.50 1018.03 1016.92 1016.58 1016.24 1015.94 1015.68 1015.70 1015.83 1015.96 1016.08 1016.34 1016.54 1016.79 1017.01 1017.23 1017.42 1017.32 1017.19 1017.40 1017.48 1017.49 1017.30 1017.02 1016.98 1017.03 1016.96 1017.06 1017.02 1017.01 1017.09 1017.25
1027.52 1026.99 1026.49 1025.87 1025.07 1024.44 1023.75 1023.45 1023.12 1022.52 1021.81 1020.97 1019.16 1017.36 1016.43 1016.03 1015.73 1015.46 1015.38 1015.43 1015.77 1015.85 1015.90 1016.14 1016.47 1016.76 1016.91 1017.13 1017.17 1017.22 1017.25 1017.30 1017.35 1017.55 1017.23 1017.15 1017.04 1016.91 1016.84 1016.82 1016.62 1016.54 1016.67
1027.88 1027.43 1027.13 1026.46 1025.66 1025.11 1024.71 1024.12 1023.50 1022.92 1022.30 1021.57 1020.12 1018.79 1016.47 1015.71 1015.34 1014.93 1014.70 1014.86 1014.94 1015.38 1015.61 1015.74 1015.96 1016.31 1016.58 1016.83 1016.94 1017.03 1017.03 1016.94 1017.10 1017.26 1017.32 1017.25 1017.06 1016.74 1016.39 1016.23 1016.35 1016.23 1016.17
Thickness
5713 5715 5716 5716 5716 5716 5715 5714 5713 5714 5714 5715 5716 5717 5717 5717 5716 5716 5716 5717 5717 5717 5717 5717 5716 5715 5715 5716 5717 5717 5717 5717 5718 5719 5720 5721 5721 5722 5721 5721 5720 5720 5719
5714 5712 5712 5713 5713 5713 5712 5712 5711 5711 5711 5712 5713 5713 5714 5714 5714 5714 5713 5713 5714 5714 5714 5714 5714 5714 5714 5714 5714 5715 5715 5716 5716 5717 5717 5718 5719 5720 5720 5719 5720 5719 5718
5710 5709 5709 5709 5710 5709 5709 5709 5709 5709 5709 5709 5709 5709 5710 5711 5711 5712 5711 5711 5711 5712 5712 5711 5711 5712 5712 5711 5712 5712 5713 5714 5714 5714 5714 5715 5717 5718 5718 5718 5718 5717 5716
5708 5707 5706 5706 5706 5706 5705 5705 5706 5706 5706 5707 5707 5707 5706 5706 5708 5709 5709 5708 5708 5708 5708 5708 5708 5709 5710 5709 5710 5710 5710 5711 5711 5711 5713 5713 5714 5715 5716 5717 5717 5716 5715
5704 5703 5703 5703 5702 5702 5701 5701 5702 5703 5704 5704 5704 5704 5704 5703 5704 5705 5706 5706 5706 5705 5705 5705 5704 5705 5706 5708 5708 5707 5707 5707 5709 5709 5710 5711 5712 5713 5713 5714 5714 5713 5712
5699 5699 5699 5699 5699 5698 5698 5698 5698 5699 5700 5701 5701 5701 5701 5701 5701 5701 5702 5702 5702 5702 5701 5701 5701 5701 5702 5703 5705 5705 5704 5705 5705 5707 5707 5708 5710 5711 5711 5710 5710 5710 5710
5695 5695 5695 5695 5695 5694 5694 5694 5694 5694 5695 5696 5696 5696 5697 5698 5698 5698 5698 5698 5699 5699 5698 5697 5697 5698 5699 5699 5701 5701 5701 5702 5703 5706 5706 5706 5708 5708 5709 5708 5707 5707 5707
5692 5691 5690 5690 5690 5690 5690 5690 5689 5689 5689 5690 5692 5692 5692 5694 5694 5695 5695 5695 5695 5695 5696 5695 5694 5693 5694 5696 5697 5696 5697 5699 5701 5702 5703 5704 5705 5707 5707 5706 5705 5703 5703
5687 5686 5686 5685 5685 5684 5684 5685 5685 5685 5685 5685 5686 5687 5687 5689 5690 5691 5692 5692 5692 5692 5692 5692 5692 5691 5691 5692 5693 5692 5693 5695 5697 5699 5699 5701 5703 5706 5704 5705 5703 5701 5700
5681 5680 5680 5680 5680 5679 5679 5679 5679 5679 5680 5680 5682 5682 5682 5684 5685 5686 5687 5687 5688 5688 5689 5688 5688 5687 5687 5688 5688 5688 5690 5690 5691 5693 5695 5697 5698 5700 5701 5701 5700 5699 5698
5674 5675 5675 5675 5676 5675 5673 5673 5673 5673 5674 5675 5676 5677 5678 5679 5680 5681 5683 5683 5684 5685 5685 5685 5684 5683 5683 5683 5684 5683 5684 5686 5686 5688 5690 5692 5692 5693 5694 5694 5695 5694 5694
5669 5670 5670 5670 5670 5670 5670 5669 5669 5668 5668 5669 5670 5671 5673 5674 5676 5676 5678 5679 5680 5681 5681 5680 5680 5679 5678 5678 5679 5679 5680 5681 5682 5682 5684 5686 5687 5688 5688 5687 5688 5688 5688
5667 5666 5666 5666 5666 5666 5665 5665 5665 5664 5664 5665 5665 5666 5667 5669 5670 5671 5673 5674 5674 5675 5676 5676 5675 5675 5675 5674 5675 5675 5675 5676 5676 5677 5679 5680 5681 5683 5683 5683 5682 5682 5682
5659 5661 5662 5662 5661 5662 5661 5661 5661 5661 5661 5661 5661 5662 5663 5663 5664 5665 5667 5668 5669 5670 5671 5671 5670 5671 5670 5669 5669 5671 5670 5671 5672 5673 5674 5676 5676 5678 5679 5679 5678 5678 5677
5651 5655 5658 5659 5658 5659 5658 5657 5657 5657 5658 5658 5658 5658 5658 5659 5660 5661 5662 5662 5663 5664 5664 5664 5664 5665 5665 5664 5664 5665 5666 5666 5667 5668 5670 5671 5672 5672 5674 5675 5674 5674 5674
5637 5649 5654 5655 5655 5654 5654 5654 5653 5654 5654 5654 5655 5655 5655 5654 5655 5656 5657 5658 5658 5658 5658 5659 5658 5657 5658 5660 5660 5661 5661 5662 5662 5663 5664 5666 5667 5668 5669 5670 5671 5671 5670
5626 5636 5639 5650 5653 5651 5650 5650 5649 5649 5649 5648 5649 5651 5651 5650 5651 5651 5651 5651 5652 5653 5653 5653 5651 5651 5650 5652 5654 5655 5656 5657 5658 5658 5659 5662 5663 5664 5664 5665 5667 5666 5666
5608 5617 5627 5635 5633 5639 5644 5645 5645 5644 5643 5642 5642 5643 5644 5645 5645 5645 5646 5646 5646 5646 5645 5645 5646 5646 5645 5645 5647 5649 5649 5651 5653 5654 5655 5656 5658 5659 5660 5662 5662 5662 5661
5590 5598 5606 5615 5622 5624 5625 5633 5637 5637 5636 5636 5636 5636 5636 5637 5638 5638 5639 5640 5640 5640 5639 5638 5637 5638 5639 5640 5640 5641 5641 5643 5645 5648 5650 5651 5653 5655 5655 5657 5658 5657 5656
5574 5580 5586 5591 5598 5609 5611 5612 5617 5624 5625 5626 5627 5628 5629 5629 5631 5630 5630 5631 5632 5631 5631 5630 5630 5630 5631 5632 5634 5635 5635 5637 5638 5639 5642 5645 5647 5649 5650 5650 5650 5649 5650
5561 5567 5569 5572 5574 5579 5586 5594 5598 5600 5611 5614 5616 5617 5618 5619 5621 5622 5622 5622 5622 5622 5623 5623 5623 5623 5623 5624 5624 5625 5629 5632 5634 5634 5635 5637 5640 5643 5644 5644 5644 5644 5641
5538 5542 5548 5550 5552 5555 5558 5566 5575 5581 5590 5596 5600 5603 5605 5608 5610 5611 5611 5611 5613 5612 5612 5612 5613 5613 5614 5616 5616 5615 5615 5621 5626 5629 5631 5631 5633 5635 5637 5637 5637 5636 5639
5517 5520 5523 5526 5529 5533 5538 5545 5551 5564 5571 5576 5582 5587 5590 5594 5597 5599 5600 5601 5601 5602 5602 5602 5601 5602 5603 5605 5608 5606 5603 5608 5612 5617 5621 5622 5625 5626 5629 5630 5630 5630 5630
5495 5497 5502 5505 5508 5510 5514 5520 5520 5522 5530 5545 5559 5569 5572 5576 5581 5585 5587 5588 5589 5591 5591 5591 5592 5591 5591 5591 5594 5598 5598 5600 5600 5604 5607 5611 5613 5617 5619 5622 5624 5626 5626
5472 5474 5476 5479 5483 5487 5492 5494 5497 5501 5508 5515 5531 5548 5557 5561 5566 5570 5573 5575 5575 5577 5580 5580 5580 5579 5581 5580 5581 5583 5586 5589 5591 5592 5598 5597 5600 5605 5608 5611 5616 5620 5621
5445 5447 5448 5451 5456 5459 5460 5464 5470 5477 5483 5491 5503 5516 5538 5544 5550 5555 5560 5561 5564 5564 5565 5568 5569 5569 5569 5570 5570 5571 5574 5579 5580 5579 5582 5583 5588 5592 5598 5603 5606 5609 5613